FENGYUN 1C DEB

Satellite information

Favourite Embed

Satellite Type and Status

DEBRISIN ORBIT

Key statistics

Satellite FENGYUN 1C DEB at a glance.

Uptime

9556

Days in orbit

Revolutions

≈ 14.3

Per day

Orbit

SSO

Sun Synchronous Orbit

Inclination

99.0

Latest

Satellite identification and parameters

Extended collection of information and parameters for FENGYUN 1C DEB.

Object identification

Identified? True

Debris? True

Object name: FENGYUN 1C DEB

International designator: 1999-025ASE

Object number (NORAD): 30720

Object ID (CCSDS): 30720

Country: PEOPLES REPUBLIC OF CHINA (PRC)

Current information (Y/N): Y

RCS size: SMALL

Orbital parameters

Period: 100.801 minutes

Inclination: 99.0293 deg

SMA: 7174.699 km

Apoapsis: 820.885 km

Periapsis: 772.243 km

RAAN: 353.6927 deg

Eccentricy: 0.0033898

Argument of periapsis: 75.6034 deg

Mean anomaly: 76.837 deg

Mean motion: 14.28555942 rev/day

Mean motion (dot): 0.00001398 rev/day2

B* drag term: 0.0005726 1/REarth

Two-line elements (TLE)

Creation date: July 5, 2025, 6:56 a.m.

Reference frame: TEME

Reference center: EARTH

Epoch: July 4, 2025, 10:32 p.m. UTC

TLE line 0: 0 FENGYUN 1C DEB

TLE line 1: 1 30720U 99025ASE 25185.93889111 .00001398 00000-0 57260-3 0 9992

TLE line 2: 2 30720 99.0293 353.6927 0033898 75.6034 76.8370 14.28555942952481

Live tracking on map

Real-time ground track for satellite FENGYUN 1C DEB.

In-orbit conjunctions

A list of the most updated potential collisions computed for object FENGYUN 1C DEB.

Target Orbit TCA Probability of collision Miss distance Type
CZ-6A DEB SSO 2024-10-13 16:09:25 0.0001828583 108.0 (m) DEBRIS
CZ-6A DEB SSO 2024-06-20 09:31:27 0.0002624952 69.0 (m) DEBRIS

Associated space launch

Chinese polar orbiting meteorological satellite

FENGYUN 1C DEB was lifted into orbit during the mission ‘Long March 4B | Feng Yun 1C’, on board a Long March 4B space rocket.

The launch took place on May 10, 1999, 1:33 a.m. from Launch Complex 7.

For more information about the launch, click the button.

Launch to space Long March 4B | Feng Yun 1C
Long March 4B | Feng Yun 1C

Agency: N/A

Status: Launch Successful

Launch date: May 10, 1999, 1:33 a.m. UTC

Rocket: Long March 4B

Launch pad: Launch Complex 7

Location: Taiyuan Satellite Launch Center, People's Republic of China

...

Latest news about this satellite

There are no fresh news available about this satellite. Check back as we update our databases every day.


Newsletter sign-up

Weekly statistics, charts and insights to help you stay on top of the space industry.